Theta_e
313 314 311 315 313 311 311 312 310 310 310 312 312 311 310 309 309 310 310 311 311 313 312 313 312 312 312 314 314 314 314 313 311 310 310 311 311 312 315 319 322 324 327 328 331 331 332 332 332 332 334 334 335 335 335 335 334 333 333 333 333 333 333 333 333 332 331 332 331 330 330 329 328 327 327 327 327 327 326 327 327 327 326 326 326
315 311 312 313 311 310 312 311 311 310 312 313 310 310 311 309 309 310 309 311 313 315 312 314 316 315 313 312 313 314 313 312 311 311 311 311 311 312 314 317 319 322 325 327 328 330 331 331 332 332 333 333 333 334 334 334 334 334 334 334 334 334 333 333 333 332 332 331 332 331 331 330 329 329 329 328 327 328 327 327 327 326 326 327 327
314 311 312 312 310 311 311 310 311 312 311 314 310 310 310 310 311 310 311 311 315 315 313 314 315 316 315 314 313 313 313 312 310 310 311 311 311 311 312 314 317 320 322 324 327 328 329 330 331 332 333 333 333 333 333 333 334 334 334 334 334 333 335 334 332 333 332 332 331 331 330 330 329 330 329 329 329 329 329 328 328 328 328 327 327
313 311 311 311 311 311 310 310 313 311 310 311 311 309 309 309 308 309 310 312 314 314 314 313 314 315 313 311 313 312 311 310 309 310 310 311 310 311 311 312 313 316 318 320 323 325 326 328 330 331 331 331 333 333 333 334 335 334 334 335 334 333 334 334 333 332 332 334 333 332 332 330 331 330 330 330 330 330 329 328 328 328 328 328 327
313 313 311 311 311 310 309 311 312 311 310 311 310 309 308 308 311 307 309 312 314 315 315 313 313 312 309 311 310 310 310 309 309 309 309 310 310 310 311 311 310 312 313 316 319 322 323 325 326 327 328 329 330 332 332 333 334 334 334 335 334 334 333 333 332 332 333 333 333 333 334 331 331 330 330 330 330 329 329 329 329 329 328 328 328
314 311 312 312 311 312 311 311 310 310 310 309 311 312 314 313 314 312 314 313 311 312 310 312 311 307 307 309 308 309 309 309 309 309 308 309 309 309 310 310 310 310 310 312 315 317 319 322 324 325 326 327 328 329 331 332 334 334 333 333 333 334 334 333 333 333 334 333 334 332 332 332 332 331 330 330 329 330 330 329 329 329 328 328 328
315 315 314 314 314 315 315 317 315 313 314 314 316 315 314 315 315 315 315 313 310 311 309 310 307 309 310 310 311 311 311 311 310 308 308 308 308 308 309 309 309 309 309 309 310 313 316 320 321 322 323 325 326 328 329 330 332 333 332 332 332 333 334 333 332 333 333 333 333 332 331 331 331 331 331 332 331 330 332 329 329 329 328 328 328
319 319 318 318 318 318 318 317 316 315 316 315 315 316 316 315 314 315 313 312 310 312 308 308 307 310 311 311 312 312 312 312 310 309 309 307 308 308 308 308 308 308 308 308 309 309 313 314 317 319 321 322 323 325 327 329 331 331 331 331 331 332 332 331 331 332 332 332 331 331 331 331 331 331 331 331 330 330 331 330 329 330 330 329 330
321 321 322 321 321 321 320 319 318 318 318 317 316 316 314 313 312 313 313 312 310 309 311 311 312 312 313 312 312 312 312 311 310 309 308 307 307 307 307 307 307 307 307 307 308 308 310 312 314 316 316 317 319 322 325 328 330 330 329 329 329 331 330 329 330 331 331 330 330 330 329 330 330 330 330 330 330 330 330 330 331 330 328 330 330
323 323 323 324 323 320 321 321 320 319 317 315 316 312 311 311 311 311 311 309 308 311 313 313 313 313 314 313 312 311 311 311 310 306 306 307 307 307 307 306 306 307 307 307 307 307 307 309 311 311 311 312 316 320 324 325 326 328 328 328 328 329 330 329 328 328 328 328 328 329 329 329 329 329 330 330 330 329 329 329 329 329 330 332 331
325 324 324 322 320 320 321 322 320 317 314 312 314 312 310 310 310 311 308 307 311 313 314 313 313 313 312 312 311 311 310 309 307 305 305 305 306 306 305 306 305 306 306 306 306 306 306 307 307 307 308 311 314 318 320 321 322 324 326 327 327 328 328 328 327 327 327 327 327 327 327 328 328 328 328 327 328 328 329 329 329 329 329 330 330
322 322 321 320 321 323 323 321 318 317 316 317 319 315 311 310 309 307 309 309 310 312 314 314 313 312 311 311 309 309 309 308 307 304 305 305 306 304 306 305 305 305 306 306 305 305 305 305 304 306 306 307 310 312 314 316 317 318 322 326 327 326 326 327 326 327 327 326 327 327 326 327 327 327 327 327 328 328 328 328 329 329 329 329 329
323 323 323 322 323 322 320 317 314 317 316 317 318 314 310 310 310 310 312 314 317 316 314 312 312 313 313 310 310 309 308 306 304 303 305 306 303 305 303 303 305 305 306 305 304 304 304 305 305 305 305 304 306 308 310 312 311 316 321 322 324 325 326 326 326 326 325 326 326 325 326 326 326 326 326 326 326 327 327 327 328 328 329 328 329
321 322 320 322 323 320 320 320 316 314 314 314 313 311 312 312 313 316 315 316 314 313 316 314 310 309 310 310 305 305 304 303 301 302 307 307 303 301 301 302 304 304 305 304 304 304 305 305 304 304 304 304 304 305 306 306 307 313 318 319 320 323 324 324 324 323 324 325 324 325 324 323 323 323 324 325 325 326 326 327 327 327 328 327 327
325 323 324 322 322 323 321 317 315 314 315 317 315 316 316 316 316 316 316 314 312 311 311 314 312 311 310 304 301 304 303 296 295 303 306 304 299 301 303 302 303 303 303 302 303 304 305 304 303 303 303 303 304 304 304 304 305 306 312 315 317 321 323 323 323 322 321 321 323 324 323 321 321 321 323 323 324 325 324 323 324 326 325 326 326
325 324 321 323 322 319 318 317 316 317 320 319 319 318 317 316 316 314 314 313 313 312 308 310 312 311 307 306 306 305 304 298 306 310 302 302 301 305 300 301 302 301 301 302 303 303 304 303 302 302 303 303 303 303 303 303 305 305 305 306 308 316 320 322 322 321 319 320 322 322 322 321 320 321 321 322 323 323 322 323 324 323 321 321 321
325 323 319 321 322 323 323 323 322 321 320 319 318 318 317 316 316 315 314 313 312 312 311 310 308 311 311 306 304 302 302 306 306 306 303 307 306 305 302 302 303 302 301 302 301 302 302 301 302 302 302 302 302 302 302 303 303 303 304 303 306 312 318 319 321 321 320 320 319 319 318 319 320 320 321 321 322 320 322 323 323 321 320 320 322
322 324 325 322 323 323 322 321 320 319 319 319 318 317 316 315 315 315 314 314 313 310 310 308 307 308 310 311 309 306 304 305 304 299 306 308 306 304 305 304 300 301 301 300 300 302 301 301 301 302 302 302 302 302 301 302 302 302 303 305 311 314 315 317 319 321 319 316 314 314 313 313 313 313 313 314 314 315 316 318 320 321 320 321 321
321 323 323 322 321 321 320 320 320 320 316 318 317 315 313 312 310 311 311 310 308 306 308 309 306 307 307 307 306 307 307 304 301 303 298 303 304 303 302 302 301 301 300 300 300 300 300 300 301 300 299 300 300 300 301 302 303 304 307 308 312 312 312 312 314 313 314 312 312 313 314 313 313 313 313 313 314 315 316 317 318 318 321 320 320
320 319 319 319 318 317 317 317 316 315 314 315 313 310 310 310 310 310 309 307 305 306 307 310 307 307 306 305 302 300 300 302 302 301 298 293 293 296 299 298 298 297 298 299 299 299 299 301 301 299 298 299 299 299 299 299 299 299 300 309 311 310 309 309 308 307 307 309 311 312 312 313 312 312 314 313 314 316 317 317 317 318 319 320 319
314 313 312 313 311 315 315 314 314 314 311 312 311 309 307 309 309 309 308 309 309 309 309 308 308 307 306 304 304 302 300 301 303 302 297 292 291 291 290 292 293 294 294 296 297 297 298 299 298 296 297 299 300 299 298 299 300 299 302 308 308 308 308 308 306 305 304 305 306 309 310 311 312 313 314 315 314 313 314 315 315 317 317 317 318
310 310 310 310 310 310 309 309 307 307 306 306 305 305 305 304 302 301 301 304 306 307 307 306 306 306 305 303 302 302 300 297 295 299 298 297 292 290 290 288 287 288 291 291 292 294 296 295 295 297 298 298 299 299 298 299 300 299 301 304 303 305 306 305 304 303 304 304 304 304 305 308 311 314 315 315 315 315 315 315 315 315 316 316 317
307 306 307 307 307 306 306 303 301 300 302 304 303 303 301 300 299 300 301 301 301 301 300 300 301 301 301 302 301 299 298 297 296 297 295 291 290 289 289 289 288 288 288 289 292 292 292 293 294 296 297 297 298 297 297 298 299 299 301 301 301 302 302 302 302 303 303 303 303 303 305 305 306 309 312 313 314 315 316 316 315 315 315 315 316
306 305 304 304 304 303 300 299 298 298 300 300 301 301 301 301 300 301 300 300 300 299 299 298 297 298 298 299 299 299 298 297 298 297 294 293 292 289 289 289 289 288 291 291 290 291 291 292 294 295 296 294 295 296 297 297 297 298 296 297 299 300 300 301 302 302 302 301 301 302 303 304 304 304 306 308 310 312 314 315 315 315 315 315 314
304 303 302 301 301 300 297 297 297 296 296 298 297 298 298 297 297 297 298 297 297 297 296 295 296 296 295 295 294 292 293 295 296 296 296 296 293 290 289 291 289 288 287 286 285 284 291 292 293 293 293 293 294 295 295 294 293 295 295 294 297 298 298 299 301 301 300 300 301 301 301 301 303 303 303 304 306 308 310 313 313 314 314 313 314
303 302 299 298 297 295 295 295 294 294 295 295 296 296 296 296 295 295 294 295 295 294 293 292 292 292 293 293 292 292 292 293 295 295 294 293 291 290 289 289 288 286 287 281 282 284 281 284 289 292 291 291 293 291 291 293 291 293 294 293 293 296 297 298 298 298 299 300 300 299 299 299 300 301 302 304 304 305 305 307 310 312 312 313 312
302 298 297 296 294 293 293 293 293 293 293 294 294 294 293 293 292 291 292 292 292 291 290 290 290 290 290 290 290 290 289 290 292 292 293 293 292 291 289 286 285 283 283 283 285 282 283 282 285 287 291 290 289 290 290 289 291 293 293 291 290 294 295 296 296 298 299 299 299 298 298 299 299 300 300 301 303 303 303 305 306 307 309 310 310
297 296 294 293 292 292 291 291 291 291 291 292 291 291 290 290 289 289 289 290 289 288 288 287 287 287 287 287 288 288 288 288 289 290 290 291 291 291 290 289 286 282 284 282 280 281 281 283 282 286 289 287 286 288 290 290 289 292 291 289 290 290 293 294 296 298 298 297 297 297 297 298 298 300 299 299 299 299 301 303 303 304 304 305 306
295 293 291 290 291 291 290 289 290 289 290 289 289 289 288 288 287 287 286 286 286 286 286 286 286 286 286 285 285 285 285 284 284 285 287 289 289 290 291 289 288 285 282 280 281 281 281 284 283 283 283 285 288 288 287 286 289 290 289 289 288 288 291 294 296 296 296 296 296 297 297 297 297 297 298 298 298 299 300 299 299 300 301 302 302
293 291 290 289 289 288 288 287 287 287 287 287 287 287 287 286 285 284 283 283 284 283 283 283 283 283 283 283 282 282 283 282 282 282 283 285 286 287 288 289 290 286 286 283 282 284 283 284 283 282 285 287 286 287 287 287 290 289 288 288 288 288 291 292 294 294 294 295 296 296 296 296 297 297 297 296 297 298 299 299 299 300 300 301 303
290 289 288 287 286 285 285 285 285 285 285 285 285 285 285 285 284 283 282 283 284 283 282 283 282 282 282 282 282 282 282 282 282 282 282 282 283 284 286 288 288 287 286 285 282 283 284 282 284 284 285 286 286 286 287 286 288 289 287 287 287 289 290 290 291 292 293 295 295 295 295 296 296 296 296 296 296 297 298 298 298 298 299 300 301
289 288 287 286 285 285 284 285 284 284 284 283 283 284 284 283 283 284 283 284 284 283 282 281 282 282 282 282 281 281 281 281 281 281 281 281 281 281 281 283 285 286 286 284 282 281 284 283 284 285 284 284 285 285 285 286 287 288 286 286 287 288 287 287 289 291 292 293 294 293 294 295 295 296 296 295 296 297 297 297 297 297 298 299 300
286 286 286 286 285 285 284 284 284 284 284 283 282 283 283 283 283 283 283 283 283 282 282 282 282 281 281 281 281 281 281 281 281 280 280 280 280 280 281 281 281 281 283 282 281 280 282 284 283 283 284 284 284 285 284 284 285 286 287 286 287 287 287 287 287 289 290 291 291 292 293 294 294 294 295 294 294 295 295 296 296 297 297 297 295
286 286 286 284 284 284 284 284 283 283 283 283 282 283 283 283 283 282 282 283 283 282 282 282 281 281 281 281 280 281 281 280 280 280 280 280 280 280 280 280 280 280 281 281 280 280 279 282 282 283 283 283 282 284 283 283 284 285 285 286 286 286 286 286 286 287 289 290 291 292 293 293 293 293 293 292 294 293 294 297 295 296 297 297 295
284 285 285 284 284 284 283 283 283 283 283 282 282 283 283 283 283 282 282 282 283 282 281 281 281 281 281 280 279 281 280 280 279 280 280 280 279 279 280 280 279 280 280 280 280 279 279 280 282 281 282 283 282 282 283 284 284 285 284 284 285 286 286 286 286 286 288 289 291 292 292 293 293 293 293 293 293 293 294 294 293 294 295 295 295
284 283 283 284 283 283 283 283 283 283 282 282 282 282 282 282 282 282 282 282 282 281 281 281 281 281 281 280 280 279 280 279 279 279 279 279 279 279 279 280 279 280 280 280 280 280 280 280 281 281 282 281 282 283 284 285 284 284 284 284 285 284 285 285 284 284 286 290 291 291 292 292 292 292 292 292 292 293 293 293 293 294 294 294 294
283 283 282 283 283 283 283 283 282 282 282 282 282 282 282 281 282 282 281 281 281 281 281 281 282 281 280 280 280 280 280 279 279 279 279 279 279 279 279 279 279 280 280 280 280 281 281 280 280 281 282 282 283 283 283 283 283 283 283 283 283 283 283 284 284 285 287 289 289 290 290 291 291 291 292 292 292 292 293 293 292 293 292 292 292
283 283 282 282 283 282 282 282 282 282 281 282 282 282 281 281 281 281 281 281 281 281 281 281 281 280 280 280 280 280 279 278 279 279 279 279 279 279 279 279 279 280 279 280 281 281 281 281 281 280 282 281 281 282 283 282 281 280 281 282 282 282 282 282 283 284 285 285 285 286 287 288 289 290 291 291 292 292 292 292 292 292 291 291 292
283 282 282 282 281 282 282 282 282 282 282 281 281 281 281 282 281 281 281 281 281 280 281 280 280 280 280 280 279 279 278 278 279 278 279 279 279 279 279 279 280 280 280 281 281 281 281 281 281 282 281 281 281 280 281 282 281 281 280 279 279 282 282 282 282 284 285 285 287 288 288 288 289 288 289 290 291 291 291 291 291 291 290 290 291
282 282 282 281 281 281 281 281 281 281 281 281 281 281 281 281 281 281 281 280 280 280 280 280 279 278 279 279 279 278 278 278 278 279 279 279 279 279 279 279 280 281 281 281 281 281 280 280 280 280 280 280 280 280 281 280 279 279 280 280 278 280 281 283 283 283 284 285 284 285 286 287 287 288 289 289 289 290 290 290 289 289 289 290 291
282 281 281 281 281 280 280 281 280 281 281 282 282 281 282 281 281 281 281 280 280 280 279 279 278 278 278 278 278 277 279 282 283 283 283 283 280 279 280 281 282 281 281 281 281 280 280 280 279 280 279 279 279 278 278 278 278 278 280 281 280 281 282 282 283 284 284 283 283 284 284 284 284 284 285 285 285 287 287 288 288 288 289 291 292
281 281 280 280 280 280 280 279 279 280 281 282 285 288 286 282 281 281 281 280 280 279 279 278 278 278 278 277 278 281 281 281 282 282 283 283 283 282 281 281 281 280 280 280 279 279 279 278 278 279 278 277 278 278 278 280 281 281 281 281 280 281 282 281 283 284 285 284 283 282 283 285 284 284 285 284 285 285 285 285 285 287 289 292 292
280 280 280 279 279 279 279 279 279 280 282 283 288 288 288 287 282 280 280 279 279 279 278 277 277 277 277 277 277 278 279 280 279 281 281 282 282 282 283 283 283 282 280 279 279 280 279 278 279 279 278 278 279 279 279 280 281 281 281 281 281 281 280 279 277 281 285 284 282 281 282 285 284 283 283 283 284 284 284 284 288 289 290 290 291
279 279 279 279 279 278 278 278 278 279 281 287 288 288 288 287 283 280 279 279 278 278 277 277 277 276 276 276 277 278 277 278 278 277 279 280 282 282 283 283 284 284 284 282 280 279 279 278 278 278 279 278 279 280 280 280 280 281 281 281 281 280 279 279 279 278 282 284 282 281 281 284 284 283 282 282 283 284 284 287 288 289 289 290 290
278 278 278 278 278 278 278 277 277 278 280 286 287 287 287 286 284 281 278 278 278 278 277 277 276 276 276 276 276 277 277 279 277 277 277 278 281 283 283 283 283 283 283 284 284 282 281 279 279 278 279 279 278 280 281 281 282 280 281 280 281 281 280 279 280 280 282 284 282 280 279 281 282 281 280 282 283 283 283 285 287 289 289 289 290
278 277 277 277 277 277 277 277 277 278 279 285 286 287 286 285 283 281 277 278 278 278 278 277 277 276 275 276 275 276 276 276 276 277 278 280 281 281 281 281 281 281 282 283 282 282 282 280 280 278 280 281 280 281 282 283 281 280 280 280 281 280 280 279 281 282 283 284 281 279 277 279 281 280 280 281 282 282 282 284 287 288 290 289 289
277 277 277 276 276 276 276 276 277 278 281 285 286 286 286 284 283 281 277 278 278 278 278 277 276 276 275 276 275 275 275 275 276 279 280 281 281 281 280 280 280 280 281 281 280 280 280 281 281 281 281 282 282 281 282 283 282 282 282 281 281 281 281 282 280 280 280 282 281 278 274 278 281 279 279 280 281 281 281 283 286 290 290 289 290
276 276 275 276 275 275 275 275 275 276 279 284 285 285 285 283 282 278 277 278 277 277 277 277 277 276 276 275 275 275 275 275 278 281 282 282 281 280 279 279 279 280 279 281 282 283 282 282 282 281 281 281 283 282 283 283 283 283 283 283 282 281 278 276 275 276 277 279 280 278 276 276 279 277 277 279 280 280 279 279 285 290 290 290 290
276 275 275 274 274 274 273 274 274 275 276 282 284 284 284 283 280 277 277 276 276 276 276 277 276 275 275 275 275 275 275 275 279 282 283 282 280 279 278 278 278 277 276 278 282 283 283 283 283 283 283 284 284 284 285 285 283 283 280 278 277 278 275 273 273 274 274 276 278 279 275 274 276 276 276 278 279 279 277 278 281 288 289 289 289
275 275 274 274 273 273 274 274 275 275 277 281 283 284 283 282 279 277 276 275 275 276 276 277 277 276 276 277 277 275 276 277 281 282 283 281 279 278 278 277 276 275 276 279 280 280 282 281 281 281 282 282 283 283 283 283 283 281 277 275 277 277 273 273 271 272 273 274 276 277 274 274 275 276 275 277 278 278 277 277 279 281 287 288 289
274 273 273 274 273 273 274 276 277 276 276 278 282 283 283 282 279 277 276 274 275 276 276 275 276 276 276 276 277 277 277 279 282 282 282 281 279 278 277 276 275 275 277 279 278 277 277 276 277 278 278 280 280 279 280 281 281 280 279 278 278 275 272 272 271 271 270 271 275 277 272 273 273 275 275 274 274 277 277 275 276 277 279 282 283
Wind_Speed
3 2 1 2 1 1 1 2 1 1 0 1 1 3 3 2 3 3 3 4 3 4 4 4 3 2 2 5 5 5 5 5 5 5 5 6 6 7 9 8 10 11 13 14 16 17 18 18 18 18 19 20 19 20 21 22 22 21 21 21 21 20 19 17 17 19 18 22 22 22 20 20 20 21 21 21 22 20 20 22 22 22 21 21 22
4 2 3 3 1 1 1 2 2 2 1 3 2 2 3 3 3 3 4 5 4 3 2 4 5 4 2 4 5 4 5 5 6 6 6 6 6 6 9 9 10 12 13 14 15 16 17 18 18 19 20 20 21 21 22 22 22 22 22 22 23 23 22 21 20 19 19 20 22 23 23 21 21 22 23 23 22 22 22 23 22 24 22 23 24
3 3 2 2 1 1 2 1 4 2 1 4 1 2 2 3 3 4 4 4 4 2 2 4 4 5 4 4 4 5 5 5 5 5 6 6 6 6 7 11 9 11 12 13 15 16 17 17 18 19 19 21 22 22 23 23 23 23 23 23 23 22 23 22 21 21 20 19 21 22 22 23 23 22 24 21 23 24 23 24 24 24 24 24 24
3 3 3 2 2 2 2 2 4 2 2 3 3 2 3 3 4 4 3 2 4 4 2 2 4 5 4 4 5 5 5 6 6 6 5 6 6 6 6 7 9 10 10 13 14 15 16 16 17 18 19 20 21 22 23 23 23 24 23 23 24 23 23 23 23 21 22 21 22 21 22 21 23 25 24 22 24 25 25 24 25 25 25 26 25
3 3 3 3 2 2 3 4 4 3 3 3 3 3 2 3 5 1 3 2 3 5 2 2 4 5 3 4 5 6 5 6 6 5 6 5 6 6 6 6 6 9 10 9 12 15 15 16 16 17 17 18 19 21 21 22 22 22 23 23 24 23 23 22 22 22 22 22 22 21 20 20 21 21 23 25 27 27 26 25 26 27 28 27 27
4 3 3 3 3 3 4 4 4 3 4 3 3 2 3 3 4 2 4 3 4 4 3 5 5 3 4 4 5 6 5 6 5 5 5 6 6 5 6 6 6 6 6 10 10 11 13 14 15 15 16 17 18 19 19 20 21 21 21 22 23 23 24 24 24 23 24 25 24 21 20 21 21 21 22 23 24 23 23 26 26 29 29 29 26
3 4 4 4 4 4 3 4 3 3 3 3 3 2 3 4 3 4 4 4 4 4 4 4 3 6 6 6 6 6 5 6 5 5 5 6 5 5 5 5 5 5 6 6 8 10 11 13 14 15 16 16 17 17 18 18 19 19 20 21 21 23 23 23 23 24 24 24 23 23 23 23 22 23 24 22 23 23 21 23 26 27 29 30 26
5 4 4 3 3 4 4 2 2 2 3 2 2 4 3 3 3 3 3 4 3 6 1 3 3 5 6 6 6 5 6 6 6 6 5 5 6 5 5 5 5 5 6 6 6 7 10 10 12 14 15 16 16 16 17 17 17 19 20 21 21 21 22 22 24 25 26 26 25 25 25 24 24 24 24 24 24 23 24 22 26 25 28 30 29
4 5 4 4 4 4 4 3 3 3 4 4 4 4 3 2 3 3 3 4 4 5 7 4 5 5 6 6 6 6 7 6 6 6 5 5 6 5 4 5 5 5 5 5 6 6 9 11 11 12 13 14 14 15 16 17 18 20 20 21 21 22 23 22 23 23 24 24 24 25 26 26 26 25 25 25 25 25 26 24 21 24 26 28 29
4 4 4 5 5 4 2 2 3 4 3 1 5 2 1 1 3 2 0 1 4 5 7 5 4 5 6 6 7 6 7 6 6 5 4 6 5 5 5 5 5 6 6 5 5 6 6 9 11 11 12 11 13 15 16 18 19 20 20 21 23 23 23 24 23 23 24 24 24 25 25 26 26 26 26 25 25 25 25 26 26 26 25 22 25
3 4 4 5 4 3 2 3 3 1 1 3 4 3 1 0 1 4 1 1 4 4 5 4 5 5 6 6 6 7 6 6 5 4 4 4 5 5 4 5 5 5 6 5 5 6 7 6 6 7 8 12 13 15 16 18 18 19 20 21 23 23 24 24 24 24 24 24 24 24 25 25 25 26 26 26 26 26 27 26 27 27 27 25 22
5 5 5 4 5 5 5 1 1 3 3 5 5 4 3 1 2 2 5 4 3 4 4 4 4 5 7 6 6 6 7 6 4 3 4 5 4 4 5 5 5 6 6 5 6 6 6 7 6 6 6 8 11 12 14 15 16 17 18 19 21 22 23 23 24 24 24 24 24 25 25 25 26 26 26 27 27 26 27 27 27 27 28 29 27
6 6 7 7 5 4 4 4 2 2 3 4 3 2 0 1 2 2 3 2 3 1 2 1 4 5 3 5 5 5 6 5 2 4 5 6 3 4 3 5 5 6 6 6 6 6 6 7 7 6 7 6 7 10 11 12 11 15 17 19 21 21 22 23 23 23 23 23 24 24 25 25 26 27 27 28 28 28 28 30 29 29 29 29 28
2 2 3 3 4 4 3 4 3 3 3 3 3 1 1 2 2 3 2 2 1 2 4 1 2 3 7 7 2 3 3 2 3 3 7 6 4 3 4 4 6 6 6 6 7 6 7 6 6 7 6 6 6 7 7 8 9 14 18 19 20 21 22 22 23 23 24 24 25 25 26 27 28 28 28 28 29 29 30 30 30 29 30 31 30
4 4 5 5 4 4 5 3 2 2 2 3 2 3 2 2 2 3 2 1 1 1 2 0 2 3 3 2 3 7 5 3 2 3 4 4 2 4 5 5 5 5 6 6 6 7 6 6 6 7 6 6 6 6 7 7 9 13 15 17 18 19 21 21 22 23 24 24 24 25 26 27 28 28 28 29 29 30 31 33 33 32 32 32 32
4 5 5 4 3 3 2 1 2 3 3 3 2 1 1 1 0 1 1 1 1 0 2 1 1 3 4 1 3 2 5 2 7 10 4 4 4 6 3 4 5 5 6 6 7 7 7 6 7 6 6 6 6 6 7 7 10 12 12 13 13 17 19 20 22 22 23 24 26 26 26 27 28 28 29 29 29 29 30 31 31 32 32 33 33
4 3 2 3 4 3 4 4 3 3 3 2 1 1 2 2 3 2 1 1 1 1 1 3 3 2 1 3 3 1 1 4 7 6 5 10 8 7 5 5 6 5 6 7 7 7 6 6 7 6 6 6 6 6 7 7 7 6 9 11 12 15 18 19 20 22 22 24 24 26 27 27 28 28 29 28 30 31 31 30 31 32 34 33 34
2 3 3 2 2 2 2 2 3 2 2 2 3 3 3 4 3 3 2 1 1 2 1 2 3 3 1 1 1 3 5 3 3 4 4 7 7 6 9 8 5 7 8 8 8 7 6 7 6 7 6 7 6 7 6 6 6 6 6 8 14 16 17 18 18 19 22 24 26 27 28 28 28 28 28 30 30 31 31 32 32 33 32 32 32
1 2 4 5 4 3 4 3 5 4 3 3 3 3 4 3 3 3 2 1 2 2 3 1 1 3 2 1 2 1 1 4 3 5 8 1 2 5 6 7 7 9 9 10 10 9 9 7 8 7 6 6 6 6 6 6 8 8 9 11 14 13 15 15 16 19 21 25 27 27 27 27 27 28 29 29 29 30 30 30 31 31 33 33 33
5 3 5 5 5 4 4 4 4 3 3 3 3 3 4 3 4 3 2 2 2 3 2 2 2 1 2 3 3 3 3 0 1 3 4 7 6 3 5 4 6 5 6 8 9 8 10 9 10 10 8 8 7 6 5 6 5 4 5 10 14 15 16 19 20 21 23 26 26 26 27 27 28 29 29 29 29 29 29 29 30 32 32 33 34
4 4 2 4 4 5 5 5 4 2 3 3 3 3 3 4 3 3 2 3 2 2 3 2 3 2 2 2 2 3 3 1 3 4 2 3 7 3 8 3 3 7 5 5 7 6 7 8 10 10 8 8 8 7 7 7 6 5 5 12 16 19 22 24 26 26 26 26 26 27 28 28 30 30 30 30 31 30 31 31 31 30 31 33 33
4 3 3 3 4 4 5 4 3 3 3 3 3 4 4 5 4 4 3 4 3 5 4 3 3 3 3 2 2 4 2 3 2 5 2 2 5 11 8 10 14 4 6 6 4 5 8 8 8 8 8 7 8 7 7 7 7 6 7 13 17 21 24 26 26 25 25 25 26 27 28 29 30 32 32 33 32 32 31 31 32 32 32 32 32
4 3 4 3 4 5 6 5 3 3 4 4 4 5 4 4 4 5 6 5 4 5 5 5 3 4 4 3 3 2 1 1 4 4 4 2 7 8 9 7 8 15 2 2 8 9 8 7 7 8 7 7 7 7 6 6 7 8 11 12 16 21 23 24 24 25 24 25 26 27 28 28 30 31 32 32 33 32 33 32 32 33 32 33 33
2 5 4 2 4 5 5 4 4 4 4 3 4 4 4 4 5 5 4 5 5 5 4 5 5 4 5 4 3 3 4 3 3 3 3 3 4 8 9 9 7 6 8 9 6 7 6 7 7 7 7 6 6 6 6 6 6 9 10 13 16 20 21 23 24 24 25 25 27 28 29 29 30 30 32 32 33 34 33 34 33 33 34 34 34
4 5 3 2 4 5 4 4 4 4 4 5 4 5 6 5 5 5 5 5 4 4 5 5 4 4 3 2 2 3 4 3 3 3 3 2 4 8 7 4 8 12 5 3 4 2 7 7 7 7 6 5 5 6 6 6 6 9 15 14 17 15 19 22 24 25 26 27 27 28 28 30 31 32 31 32 32 33 34 34 35 34 35 34 35
6 5 4 4 5 4 4 5 4 4 5 5 5 5 5 6 5 6 5 4 5 6 6 5 5 5 3 4 4 4 4 4 3 4 4 4 4 6 10 7 5 9 7 2 2 4 4 2 5 6 5 5 7 4 4 6 8 14 19 14 13 17 21 24 26 27 27 28 29 29 30 30 31 31 32 32 34 33 35 34 35 35 35 35 35
6 6 5 6 5 4 4 5 4 5 5 6 6 6 6 6 6 6 5 5 6 5 5 5 5 5 6 4 4 4 4 4 4 4 3 3 4 5 7 12 11 4 5 4 5 4 6 4 4 4 7 4 4 6 8 9 12 17 17 12 10 17 20 22 25 27 28 28 29 29 29 30 31 32 33 33 34 35 34 36 35 36 36 35 36
5 7 4 5 5 6 5 5 4 5 5 5 5 5 5 7 6 6 6 4 5 7 4 5 6 6 6 4 5 5 4 4 4 4 3 3 4 3 4 5 7 13 13 10 1 5 3 2 4 5 6 3 4 6 7 10 8 13 13 8 9 10 19 22 26 28 28 28 28 28 29 31 32 33 32 33 33 33 34 34 35 35 37 36 36
7 5 6 4 5 6 6 5 5 5 6 5 6 6 6 6 6 6 6 4 7 6 5 7 5 4 5 6 5 3 4 3 3 3 4 4 3 3 3 3 4 5 8 10 18 5 5 1 1 4 1 4 9 7 6 5 9 11 9 9 10 10 17 24 28 28 28 28 28 29 30 31 32 32 32 32 33 33 35 34 35 36 36 37 36
8 6 6 6 6 5 7 6 5 5 5 5 6 6 7 7 6 6 4 4 6 4 4 5 5 4 3 4 4 4 3 4 4 3 3 4 4 4 3 3 3 4 4 8 15 8 6 5 3 3 9 11 5 9 8 8 12 14 10 11 11 12 21 25 26 26 28 29 30 29 31 31 32 33 33 34 34 35 35 36 35 37 36 37 38
7 7 7 6 6 6 6 6 5 5 5 5 5 6 6 7 5 5 3 4 6 6 4 5 3 4 5 5 4 5 4 5 5 5 4 4 4 3 3 3 3 2 6 7 10 6 4 10 9 4 7 14 11 9 9 7 11 15 13 13 13 17 21 17 23 26 28 30 30 31 31 33 33 33 34 33 33 34 36 35 37 37 38 38 39
6 7 7 7 7 7 5 6 6 5 6 4 5 6 6 6 5 5 4 5 7 6 4 4 4 5 5 6 5 5 4 4 4 4 3 3 3 3 2 2 2 3 4 6 9 18 14 8 12 13 6 11 11 9 14 14 11 15 12 13 15 19 12 12 18 24 26 28 30 30 32 32 33 33 33 33 35 36 36 36 37 37 37 37 36
7 7 8 8 7 7 6 5 6 6 6 5 4 5 6 6 5 5 4 6 6 4 4 5 5 5 5 4 4 4 3 4 4 3 3 3 3 2 2 1 2 4 3 5 10 15 18 7 6 10 10 10 12 11 14 14 17 16 14 11 12 13 12 11 12 18 24 28 31 32 33 33 32 32 32 34 34 36 35 35 35 36 36 35 35
7 8 8 7 6 6 7 6 5 6 5 6 4 5 7 7 6 4 5 5 5 4 4 5 4 4 3 4 4 4 3 3 3 4 3 4 4 3 3 3 3 4 3 3 6 10 17 18 14 12 11 4 11 10 11 14 16 16 19 16 11 12 11 10 9 12 22 26 29 32 32 33 33 32 34 36 34 33 34 35 34 34 35 34 36
5 7 8 7 6 6 7 6 6 6 5 6 4 6 6 6 6 5 4 5 6 5 5 4 4 3 4 4 4 4 3 4 3 3 3 3 3 3 4 3 3 4 4 4 6 10 14 17 15 13 13 14 11 12 11 10 11 12 15 15 14 13 12 12 12 12 17 25 28 30 33 33 32 33 34 32 33 34 33 34 34 35 35 36 35
8 6 6 7 6 6 7 6 6 6 6 5 5 5 6 6 5 5 5 5 5 5 4 4 4 4 4 4 4 4 4 4 4 4 3 3 3 3 3 3 3 4 4 4 5 8 11 15 17 14 13 14 15 12 11 12 12 12 11 14 11 11 12 13 13 13 16 27 30 30 31 31 30 31 31 33 33 33 33 35 35 35 36 35 36
7 8 5 5 6 6 8 7 6 6 5 5 6 6 5 5 5 5 4 4 4 4 4 4 4 4 4 4 4 4 4 5 5 6 5 6 5 4 5 5 4 4 4 4 5 6 9 13 16 14 13 11 11 12 7 11 13 12 12 13 13 13 14 13 11 11 19 25 25 27 27 28 27 28 30 31 32 32 33 34 34 34 34 35 35
7 6 7 5 6 7 6 6 6 6 5 5 6 6 5 4 4 4 4 4 4 4 4 3 3 3 3 3 3 3 4 4 5 5 5 6 5 5 5 6 5 5 5 5 6 7 9 11 12 16 13 14 13 11 12 12 13 15 12 13 14 13 13 16 15 11 8 8 12 16 18 16 20 25 29 30 31 32 33 34 34 34 33 33 34
9 8 6 7 4 7 6 6 6 6 6 6 6 5 4 4 4 4 5 4 4 4 3 3 3 3 3 3 3 3 3 3 4 5 5 5 5 6 6 6 5 6 7 7 7 8 9 11 10 9 12 10 10 16 13 10 12 10 14 13 14 10 11 12 17 13 12 13 15 22 21 19 18 17 22 30 30 31 32 31 32 33 32 31 32
8 8 8 8 6 6 6 6 5 5 6 6 5 4 4 4 5 5 4 4 4 3 3 3 3 3 3 2 2 3 3 3 3 4 5 6 5 5 5 5 6 8 8 8 7 8 9 9 9 11 9 12 11 9 11 11 12 10 6 11 16 17 14 13 14 16 15 11 13 15 17 17 16 17 22 23 23 25 28 26 27 27 29 30 30
6 7 7 8 9 8 6 6 6 5 6 5 4 4 5 4 4 4 3 3 3 4 3 3 3 3 3 3 3 3 4 6 8 8 8 9 6 6 5 6 7 8 8 8 7 7 8 8 10 8 10 11 9 11 12 13 13 15 16 12 13 12 14 15 15 13 10 12 13 12 14 13 15 14 13 13 14 20 20 24 21 26 26 29 32
7 7 7 6 7 9 8 6 6 6 5 4 6 9 7 4 4 3 3 4 3 3 3 3 3 3 3 3 3 5 7 7 8 10 11 12 11 8 8 7 8 8 8 8 8 7 9 11 10 10 12 12 13 10 10 11 13 14 13 13 15 14 14 13 14 12 10 8 13 14 15 13 11 13 13 13 14 15 13 15 15 20 27 32 33
8 7 8 8 7 7 7 7 7 5 4 4 9 10 10 9 4 3 4 4 3 3 3 3 3 3 3 3 3 4 4 5 4 9 12 12 12 12 13 13 11 10 9 10 10 9 9 9 10 9 9 13 13 10 10 14 12 14 14 13 14 13 13 14 17 15 5 11 15 14 15 12 10 13 15 14 15 14 14 14 25 33 33 32 32
7 6 8 7 7 7 7 7 6 5 4 7 10 9 9 10 7 4 4 4 4 4 3 3 2 2 3 3 3 3 3 5 6 5 7 11 12 13 14 14 14 15 14 11 11 11 10 11 11 10 10 10 14 12 12 11 13 13 14 14 13 14 15 16 16 16 13 11 13 14 16 13 11 13 14 14 14 14 15 23 32 33 33 33 30
7 8 7 8 7 6 7 8 6 4 4 9 10 10 10 10 10 6 4 3 5 4 3 2 2 2 3 4 3 4 3 7 6 5 6 7 10 12 14 14 13 14 15 16 16 12 11 11 12 13 11 12 14 11 10 13 14 14 15 13 13 11 13 14 14 12 14 11 12 13 16 16 10 12 13 13 14 15 17 21 32 34 32 26 26
8 8 6 8 7 7 7 7 7 5 4 8 10 9 10 10 10 6 3 4 4 4 3 2 2 2 3 3 4 4 4 5 6 7 8 8 8 8 7 7 8 10 13 14 15 16 13 10 11 13 13 11 12 14 13 13 14 14 13 14 13 14 16 16 16 14 12 9 10 12 16 16 12 11 13 14 14 15 15 23 35 35 23 15 11
9 9 9 8 7 6 7 6 7 6 4 9 9 9 9 10 10 7 4 4 3 3 2 2 2 2 2 3 3 3 4 5 6 9 9 9 9 8 8 8 8 7 7 7 6 7 8 8 9 11 11 10 12 13 13 11 13 13 13 16 15 16 16 13 15 12 10 8 10 12 14 14 11 14 13 14 14 14 13 19 31 26 28 27 26
5 6 5 6 8 7 6 6 7 6 4 9 9 9 9 10 10 5 4 4 3 3 2 2 2 2 2 3 3 4 4 5 9 14 14 12 10 11 11 9 8 6 5 7 13 13 12 11 10 11 12 15 19 16 16 16 13 12 13 12 13 10 11 13 14 12 8 6 7 10 9 12 11 12 13 12 12 11 13 14 21 25 29 29 27
8 7 7 6 6 7 7 5 7 6 4 6 8 8 9 11 7 4 3 3 3 2 3 3 2 2 2 3 3 4 5 5 10 16 17 17 9 11 12 12 9 8 7 6 9 13 16 18 20 22 22 24 24 24 24 25 19 15 13 14 12 11 13 12 14 13 11 10 9 5 9 11 9 11 13 12 10 8 12 13 13 18 27 26 27
8 7 7 7 5 5 6 6 6 7 5 5 8 8 9 10 8 4 3 3 3 3 4 4 3 3 3 6 6 4 5 6 13 16 17 13 8 9 11 12 14 12 11 9 8 8 13 15 16 17 19 19 20 21 21 21 22 18 11 13 13 12 13 11 13 13 13 9 6 9 9 7 10 9 10 11 8 3 11 11 13 14 16 22 30
8 7 7 8 7 4 4 5 7 7 5 4 7 8 9 9 7 4 3 2 4 4 3 3 4 3 2 4 7 7 7 9 16 16 17 13 8 8 9 11 12 13 11 11 12 14 15 14 12 12 10 12 11 10 12 23 23 16 10 10 9 10 13 12 11 13 14 9 6 10 9 10 10 10 8 9 8 3 8 10 11 12 12 10 12
Wind_Direction
204 214 161 215 241 278 297 266 287 248 169 251 212 286 308 315 322 311 316 307 312 305 322 310 306 310 297 301 301 302 305 306 303 301 299 293 296 293 294 289 287 290 293 297 299 302 302 302 301 302 303 302 301 301 301 303 306 305 303 302 299 298 295 288 282 281 276 274 269 271 271 270 267 263 264 262 265 267 259 256 255 258 261 256 255
206 181 179 235 235 268 298 293 290 265 217 273 227 217 269 304 300 302 299 293 302 293 319 313 317 309 254 273 289 303 302 302 306 303 298 299 294 295 297 289 288 292 294 296 298 300 300 301 301 301 302 302 302 304 305 305 304 303 302 301 302 299 299 300 295 294 293 285 274 271 269 268 266 264 263 263 258 261 265 264 264 263 256 255 257
181 181 192 221 241 241 262 292 287 283 259 275 300 250 256 260 273 278 279 287 289 303 306 306 302 306 295 300 313 316 304 307 300 300 302 301 304 298 294 297 293 294 294 295 298 298 299 299 302 303 304 304 305 306 306 306 305 305 305 305 302 301 301 299 298 301 297 288 286 278 277 273 270 269 267 264 268 267 260 260 262 257 258 258 255
175 175 188 198 231 239 267 271 268 297 249 262 279 255 247 257 260 253 267 292 301 304 265 261 292 285 312 315 315 311 304 301 299 300 299 297 294 292 293 295 300 298 298 300 300 300 300 302 304 305 305 305 306 308 308 307 308 309 308 308 308 309 307 305 303 298 293 292 290 289 282 277 273 266 264 264 264 269 269 265 260 261 259 259 257
191 184 184 195 205 215 238 237 247 248 234 229 239 247 254 277 273 281 298 286 283 281 281 240 270 292 320 299 302 296 290 293 291 297 293 290 291 290 292 298 300 306 306 300 301 302 302 305 304 304 304 307 308 309 309 309 308 307 309 313 313 313 311 310 308 306 301 297 295 291 292 285 277 279 275 273 274 268 261 262 262 259 259 257 256
170 193 184 196 207 215 225 249 235 226 224 208 220 214 248 269 284 324 267 245 261 269 301 300 296 313 299 284 283 276 289 292 288 288 285 287 283 289 295 299 304 307 307 305 298 298 303 304 306 307 309 309 310 310 311 311 310 311 316 317 316 315 316 315 313 312 311 309 307 307 302 302 296 288 283 282 279 277 270 265 259 259 259 261 260
174 171 189 187 196 215 226 237 216 208 210 208 220 210 209 240 246 263 276 275 281 284 272 287 316 308 298 294 291 300 291 282 296 288 287 286 295 294 301 301 307 305 302 302 304 304 303 306 308 307 308 309 310 311 312 313 313 313 314 317 318 318 317 316 315 315 315 315 314 313 312 310 308 303 297 288 283 278 268 269 266 263 262 259 256
173 170 163 180 177 192 214 182 218 205 219 205 194 230 220 241 252 225 276 291 296 294 324 313 299 291 292 298 298 299 296 298 292 292 290 302 299 304 304 305 305 301 300 300 301 305 302 300 303 305 308 310 309 309 311 312 314 319 320 320 318 315 314 317 318 317 317 318 317 316 314 311 310 308 305 302 299 293 285 280 274 268 259 258 255
183 181 169 177 185 196 220 196 174 197 193 196 213 232 216 234 264 219 197 265 303 295 300 293 294 295 300 301 300 301 294 293 291 290 314 307 303 304 307 312 311 302 301 301 306 304 309 307 306 312 311 309 309 311 313 315 318 320 321 321 322 321 321 320 319 318 318 316 315 315 314 313 312 310 309 308 306 305 302 293 282 278 270 263 257
186 188 189 194 186 185 219 211 185 209 224 213 244 260 221 184 270 292 180 237 286 290 291 303 308 297 288 289 294 293 287 288 287 298 306 302 306 310 318 315 312 309 307 307 306 309 310 313 320 321 316 312 314 315 318 320 321 321 321 322 323 324 323 323 322 321 320 320 319 317 316 314 312 310 310 310 309 306 303 300 296 293 286 273 269
178 187 200 206 212 220 213 233 211 202 199 258 278 301 339 0 260 296 354 224 250 271 278 294 289 280 282 286 292 285 286 280 284 298 301 285 293 310 328 316 315 309 308 311 312 312 311 314 318 316 313 313 316 318 319 320 321 321 321 322 325 325 326 325 324 322 321 320 319 317 314 311 313 314 314 311 307 305 304 302 300 297 293 288 281
187 190 206 225 242 239 237 263 149 161 214 262 269 261 256 268 267 243 291 297 224 247 268 273 277 275 282 284 265 279 287 279 292 320 319 306 310 324 322 314 320 313 311 315 318 313 312 312 313 310 310 314 312 312 313 314 316 315 315 318 323 326 326 325 324 325 326 326 323 321 323 322 317 312 309 309 309 308 307 306 305 299 297 296 293
195 194 201 218 231 237 232 244 170 187 216 238 263 342 79 218 248 194 245 282 308 287 282 218 287 295 258 262 288 276 268 279 342 343 331 309 343 324 313 330 320 320 311 322 316 314 311 312 314 314 312 313 314 315 314 315 311 313 316 321 323 325 328 329 329 329 329 326 325 325 321 319 318 317 317 315 314 311 309 307 306 305 305 303 299
181 234 270 251 239 237 233 246 202 211 222 249 276 260 213 207 213 280 196 234 273 306 301 334 359 357 331 328 286 304 300 355 24 347 337 320 333 322 315 319 312 309 313 328 317 314 310 310 312 312 311 313 312 315 319 320 317 315 320 322 324 326 329 330 331 331 330 329 327 325 325 325 324 322 320 319 316 314 313 313 312 308 306 305 302
201 203 211 219 221 210 229 233 212 201 242 270 259 268 228 225 206 215 283 187 226 319 327 164 323 325 291 339 341 349 335 2 335 325 318 316 354 329 317 323 310 309 314 318 310 311 308 312 312 309 311 314 312 313 310 310 308 312 316 318 321 322 324 327 329 330 329 327 325 324 323 322 320 319 319 317 317 316 315 313 312 313 313 311 309
206 204 208 208 211 222 251 223 202 191 207 244 249 269 243 171 130 226 174 329 354 311 34 36 105 13 352 343 304 320 311 335 350 329 18 319 347 327 331 316 312 317 326 321 312 309 306 310 309 309 311 312 312 312 311 308 311 315 314 315 312 316 319 324 327 329 328 327 325 324 323 321 320 320 317 316 316 312 308 309 311 311 308 307 305
213 217 193 204 190 194 206 212 196 187 178 189 185 150 113 98 113 94 139 176 340 344 356 26 32 43 341 355 337 351 290 323 343 291 352 347 329 328 339 337 339 331 330 317 309 304 300 310 304 309 310 310 310 311 311 309 313 313 314 312 310 311 319 324 326 326 327 326 325 323 321 319 317 315 314 311 309 308 307 306 304 301 301 301 300
196 208 197 168 149 143 133 115 96 100 125 145 124 105 90 80 63 103 88 176 152 76 8 345 62 83 87 126 184 293 320 324 342 305 350 285 283 323 330 330 333 341 332 319 319 312 310 308 307 311 314 311 308 311 308 305 305 308 309 307 310 314 320 323 324 328 328 327 324 320 318 316 314 313 310 309 307 305 304 302 300 299 298 296 296
97 136 113 112 106 103 110 105 99 101 92 96 98 99 98 95 83 84 93 89 116 108 91 335 12 54 54 63 56 340 7 359 325 303 315 312 308 325 309 310 341 338 328 319 319 324 322 323 316 314 309 303 304 301 302 298 300 301 304 308 314 317 322 326 330 329 327 325 322 321 320 318 317 315 312 310 308 306 305 303 302 300 299 297 295
120 113 123 115 118 105 100 95 92 78 100 105 115 117 98 69 63 74 79 94 121 114 111 67 81 305 39 48 19 29 25 77 275 19 293 301 296 281 272 325 328 295 289 298 308 315 315 321 320 321 321 314 311 308 296 294 295 304 310 318 331 334 335 336 335 332 330 325 325 323 322 320 318 315 313 310 309 307 305 303 301 301 300 298 297
75 93 75 104 115 120 100 93 93 96 110 116 104 99 96 95 81 70 86 60 54 90 93 57 65 47 9 32 24 33 332 322 97 32 295 296 284 291 311 287 256 279 284 261 282 294 294 300 305 306 308 309 313 314 316 315 322 333 332 340 342 341 340 338 335 332 327 325 324 324 322 321 318 317 315 314 312 311 308 306 304 302 300 298 296
92 100 111 88 95 105 104 101 113 105 94 106 116 95 89 86 85 90 83 76 50 67 80 77 74 73 69 50 32 342 18 13 28 4 304 248 290 314 322 332 329 297 296 280 283 291 289 286 291 291 294 295 299 309 313 318 325 338 340 345 344 341 339 335 329 325 323 323 323 323 321 320 319 318 317 316 314 312 311 308 307 305 303 301 299
115 105 79 114 111 79 87 92 98 108 106 108 90 105 103 99 89 75 64 74 72 81 74 67 69 62 48 55 53 48 48 348 340 359 360 327 322 304 317 320 304 311 257 302 313 293 281 281 271 275 277 280 287 298 303 312 326 334 344 344 339 338 332 326 322 320 320 321 321 319 319 318 317 315 315 313 312 310 308 307 305 304 303 301 300
162 91 62 45 91 92 88 95 84 89 89 97 91 100 93 78 69 74 77 77 76 78 75 72 64 66 58 51 55 49 43 44 22 17 348 335 318 293 306 318 297 212 288 307 265 262 272 265 264 269 269 274 286 291 302 321 329 336 342 335 337 329 322 319 319 319 320 320 318 318 317 317 315 314 312 312 309 308 307 306 305 304 303 302 300
99 108 101 85 105 101 98 98 93 82 99 91 85 87 91 88 86 76 71 65 61 72 76 65 62 69 68 39 46 42 49 29 26 18 348 302 297 312 294 290 291 303 286 267 303 261 244 253 270 266 277 292 291 304 320 345 337 330 334 330 325 319 315 316 319 320 319 318 318 319 318 317 315 313 312 310 309 308 307 305 303 302 301 300 299
149 140 148 119 82 98 107 94 91 94 90 90 91 90 91 91 87 81 71 65 68 67 70 67 58 53 41 43 35 32 38 31 33 27 10 350 334 328 319 307 264 275 306 321 290 341 319 281 262 273 288 288 294 338 352 334 332 327 330 323 319 320 321 321 322 320 318 318 318 318 316 314 313 311 311 310 309 308 306 304 303 300 300 300 299
140 129 122 103 105 101 96 97 93 92 93 92 89 87 89 87 79 83 74 65 68 72 65 63 59 48 49 50 52 46 38 33 31 31 21 8 340 332 339 331 324 280 279 281 283 232 246 289 276 293 291 298 347 347 351 345 326 322 322 322 314 315 318 318 316 316 316 316 316 315 313 312 311 311 309 309 308 307 306 304 303 302 300 299 299
115 115 107 117 119 107 93 91 93 89 86 93 96 95 94 93 85 83 77 55 76 66 63 65 62 50 52 44 56 50 37 30 34 28 24 10 346 345 343 342 330 321 325 315 232 282 265 308 302 255 264 331 4 3 335 321 314 312 316 313 311 311 315 313 315 316 316 316 316 315 314 312 311 309 308 307 306 306 305 304 303 301 300 298 297
119 117 122 107 108 109 103 95 88 92 95 97 100 100 97 93 91 87 85 70 77 75 66 65 55 49 46 42 51 46 26 16 36 44 25 19 5 356 346 341 327 305 322 315 313 338 293 232 289 305 119 39 342 326 328 305 308 318 319 315 312 308 314 315 318 318 317 317 318 318 316 313 310 309 308 308 307 306 306 305 304 302 300 299 297
121 131 121 115 105 103 105 100 100 100 107 103 102 104 101 88 90 85 107 112 93 79 62 72 54 52 52 47 40 40 13 20 20 17 32 13 4 352 348 334 326 302 294 305 299 305 288 312 167 294 325 326 350 324 329 327 322 326 319 317 313 313 314 315 315 317 317 318 319 319 317 313 311 310 310 310 309 308 306 306 305 304 302 301 299
125 128 122 116 113 107 112 115 115 111 105 106 107 98 98 98 90 94 91 93 79 70 49 59 49 52 39 35 26 28 16 11 5 4 6 16 353 357 332 329 311 292 293 295 300 279 73 321 307 334 327 321 332 328 321 326 323 323 322 318 314 311 312 312 312 314 318 319 320 320 317 314 311 310 310 310 309 308 309 307 306 304 303 301 300
128 127 128 128 127 125 127 127 118 112 105 99 102 104 92 90 97 82 66 75 70 65 56 58 53 47 39 31 20 18 3 11 5 357 349 340 348 336 323 305 301 288 289 288 272 284 302 305 303 311 344 321 324 336 331 325 322 321 318 315 310 311 311 311 312 312 316 320 320 319 317 313 312 311 311 312 312 311 308 307 304 302 300 301 301
135 135 132 132 132 132 132 124 119 117 109 102 95 101 93 92 78 87 76 74 79 63 62 45 41 43 40 34 17 6 12 10 350 342 345 340 341 337 311 306 282 283 285 282 287 293 299 297 291 303 325 332 322 345 328 325 323 322 317 310 308 309 309 309 307 307 313 321 321 318 316 314 313 313 312 314 312 311 308 306 305 303 304 302 303
145 137 129 129 130 132 121 117 110 105 101 98 101 98 98 93 80 70 75 78 76 67 58 47 35 40 43 32 11 6 10 7 339 346 337 339 347 349 335 331 300 296 274 287 287 292 296 309 316 319 312 343 314 328 326 324 321 318 321 322 315 309 306 303 300 306 313 318 319 317 316 314 313 311 313 313 310 309 308 307 308 306 304 302 303
132 126 130 130 132 125 116 115 111 102 98 96 88 91 90 93 92 77 76 76 72 64 55 46 35 23 35 29 11 2 358 1 355 337 333 337 334 335 324 311 304 288 281 257 287 295 302 302 308 313 320 323 321 320 321 313 308 310 311 316 318 316 313 312 314 311 309 314 315 314 311 311 310 312 313 310 309 308 307 307 307 304 302 302 302
123 111 120 131 129 127 119 113 106 107 101 98 89 84 91 96 92 88 80 77 77 76 70 50 34 32 26 17 5 359 356 1 351 348 342 337 335 332 315 309 292 292 279 268 252 276 295 302 308 314 318 320 319 323 322 314 317 317 311 305 299 302 304 309 310 309 309 312 315 310 307 306 309 310 310 309 307 308 308 309 307 305 305 304 304
121 122 121 130 126 123 119 119 114 107 113 112 102 92 83 84 93 93 88 83 76 70 63 52 41 36 22 19 350 355 357 358 347 347 340 339 336 330 323 312 307 291 283 274 269 269 286 294 299 304 310 306 305 308 315 319 321 314 310 306 309 310 309 300 298 297 302 307 307 304 302 304 306 307 307 305 306 308 307 305 306 305 305 305 304
123 128 132 132 126 118 114 115 113 114 113 107 100 99 99 100 98 96 92 83 78 71 63 54 45 40 32 6 354 358 358 357 336 326 328 326 325 323 317 313 303 297 293 286 276 279 279 283 291 302 309 317 318 315 325 324 315 312 311 311 311 314 313 311 309 306 295 301 308 306 301 302 305 302 303 303 305 307 305 305 305 305 303 302 300
133 133 130 118 116 116 117 114 114 116 109 99 98 102 107 103 101 91 79 75 72 71 71 62 53 44 34 17 356 356 352 338 322 317 315 314 314 310 305 305 302 302 301 296 293 289 288 292 291 287 298 301 311 312 316 311 301 302 309 315 309 304 306 304 308 310 311 309 302 295 293 296 301 301 297 299 304 304 302 302 304 302 301 298 297
135 136 134 125 120 110 112 107 110 107 100 94 96 101 99 95 88 80 80 79 77 75 71 59 50 36 20 10 1 344 336 312 307 304 311 308 308 308 303 301 303 304 303 302 302 303 302 296 293 303 298 303 307 295 301 311 312 306 310 318 312 315 311 305 302 306 308 306 304 307 303 309 311 302 297 299 299 297 298 299 299 298 298 296 295
125 126 127 126 122 111 103 107 104 93 91 95 104 103 96 88 91 93 94 88 79 70 62 56 45 36 15 5 354 332 316 314 317 319 320 325 326 320 313 310 312 310 309 307 304 300 293 292 295 295 302 303 302 313 319 323 322 316 314 310 297 297 301 303 301 290 291 305 303 301 302 312 311 309 304 304 302 302 301 300 299 299 297 298 300
127 128 122 118 118 122 118 108 97 93 94 95 102 105 106 111 102 103 96 82 76 71 62 47 30 24 7 0 337 321 326 325 323 326 331 330 327 322 318 321 317 314 310 307 305 304 304 305 304 310 310 307 312 318 311 306 305 304 302 307 307 310 303 296 293 300 316 309 309 310 305 308 309 308 309 308 303 304 303 305 301 295 300 307 311
132 130 124 120 118 118 118 117 108 102 97 95 96 96 99 106 108 103 96 87 82 74 64 48 22 358 351 345 335 329 329 329 326 328 331 327 324 321 318 315 313 313 314 313 308 310 305 297 300 301 299 303 302 308 307 307 303 306 308 307 306 306 306 313 313 310 336 339 318 310 303 312 320 315 310 309 308 309 308 302 302 308 310 309 307
131 125 118 120 120 120 113 108 107 107 101 102 102 101 103 105 104 98 93 91 79 73 62 45 19 355 340 342 338 344 340 333 328 320 315 314 316 317 316 317 317 314 310 306 309 311 312 309 307 304 306 301 304 308 306 308 309 308 306 304 304 306 309 310 306 307 320 332 314 311 303 314 323 311 311 313 312 310 309 309 310 308 306 306 306
131 124 128 123 122 119 118 118 113 111 104 107 106 106 107 102 92 91 89 85 78 66 51 38 11 352 347 344 346 342 333 326 320 312 304 298 298 309 317 318 315 312 310 307 305 303 304 300 301 301 303 306 302 301 308 310 311 301 303 304 309 306 303 299 298 305 319 328 317 315 310 318 328 320 315 315 316 319 317 315 309 308 309 310 311
127 125 124 122 123 122 124 122 119 117 107 110 110 109 109 101 93 91 89 79 73 68 65 33 13 355 345 347 339 334 326 322 316 310 303 303 310 312 312 311 306 304 304 300 302 300 298 291 290 293 297 296 297 303 307 306 303 303 303 303 305 308 306 298 302 310 315 334 325 325 311 317 327 323 321 321 325 322 321 318 317 316 322 337 62
143 141 140 131 127 125 125 124 119 114 109 111 111 111 111 103 93 93 83 83 76 75 55 54 14 348 332 335 328 313 317 314 307 316 319 320 318 316 312 306 299 294 291 294 292 290 288 284 281 282 294 304 304 306 305 302 300 302 305 304 311 302 298 309 305 308 318 328 331 325 303 310 332 329 325 325 325 326 330 327 335 39 64 79 83
110 114 106 115 129 130 130 129 119 111 109 113 113 113 110 104 99 94 96 88 88 89 58 68 30 351 335 327 324 314 307 305 300 320 331 330 325 319 314 307 294 287 280 292 299 307 308 308 309 311 311 308 309 310 313 314 314 314 313 311 299 305 326 314 308 314 311 323 332 307 310 322 334 325 321 321 325 334 338 339 344 44 61 67 70
134 132 134 128 132 132 134 134 123 116 110 113 115 113 111 109 101 99 100 97 97 101 67 49 38 6 343 328 315 304 301 291 306 329 332 335 325 319 313 311 310 307 292 282 290 309 319 320 318 315 315 315 316 318 323 326 326 333 333 321 321 330 317 317 312 316 320 329 323 352 344 314 328 327 320 322 330 343 348 344 346 27 60 67 71
139 138 131 121 122 131 134 134 135 125 120 115 117 113 111 110 106 102 99 111 93 79 64 39 45 10 337 324 315 298 300 298 324 331 333 336 327 319 314 317 319 319 318 320 317 321 325 321 316 313 311 312 318 324 324 330 339 340 322 317 318 319 320 318 312 314 311 313 318 3 328 315 320 325 320 322 320 15 0 348 1 356 24 59 64
130 132 130 124 123 119 121 122 125 120 118 108 111 112 108 107 105 103 101 123 95 66 47 30 4 1 333 300 323 329 321 321 330 333 335 336 325 319 321 318 316 319 320 331 333 332 335 332 327 323 315 323 326 323 331 338 333 330 321 313 321 325 319 317 315 315 313 315 335 350 324 320 325 317 333 326 336 13 11 358 5 14 16 14 38